Temp
83 81 74 76 76 76 76 76 75 75 75 75 75 75 75 76 76 75 76 76 76 75 76 75 75 74 74 74 73 73 73 72 72 72 73 74 75 75 74 73 73 76 73
85 82 73 75 76 76 76 76 75 75 75 75 75 75 76 76 75 75 75 75 75 75 75 74 74 74 73 73 73 73 72 72 71 71 72 74 73 75 74 73 73 74 73
84 82 78 74 75 75 75 75 75 75 75 75 75 75 76 75 75 74 75 75 75 74 75 74 74 73 73 72 72 72 72 71 70 70 72 79 78 74 75 74 74 74 73
85 83 81 72 75 75 75 74 74 75 75 75 75 75 75 75 75 75 74 74 74 75 75 74 73 73 72 72 72 72 71 70 70 70 79 80 80 73 75 75 75 74 73
84 84 81 72 74 74 74 74 74 75 75 75 75 75 75 75 75 74 74 74 74 74 74 74 73 73 72 72 72 72 71 71 70 73 79 77 79 75 74 74 75 74 72
84 85 72 72 74 74 74 74 74 74 74 75 75 75 75 74 73 73 73 73 73 73 73 73 72 72 72 72 71 71 71 70 70 80 79 77 77 73 74 74 74 74 73
84 84 79 71 73 74 74 74 74 74 74 74 74 74 74 73 73 72 72 72 72 72 72 72 72 72 71 71 71 70 69 69 76 77 76 76 75 72 75 75 74 73 72
83 82 80 70 70 72 73 73 73 73 73 74 74 74 74 72 72 72 72 72 72 72 72 72 71 71 71 70 70 69 67 67 77 78 77 78 70 73 74 73 73 72 72
84 81 77 78 73 67 69 70 71 72 72 72 72 72 71 71 71 71 71 71 71 71 71 71 70 70 70 69 68 67 66 67 74 78 78 76 68 74 74 73 72 72 71
82 82 77 77 77 77 74 66 67 69 70 70 69 68 67 68 68 67 68 70 71 70 70 70 69 69 69 68 67 66 66 67 78 77 77 72 68 73 73 72 72 71 71
79 81 79 76 76 76 72 66 65 66 66 66 66 64 65 76 74 70 66 67 69 68 69 69 69 69 68 66 66 66 65 76 76 74 71 68 71 73 72 72 72 71 70
73 78 81 79 73 72 74 70 74 74 74 75 74 72 77 77 77 76 66 64 65 66 68 69 69 68 70 77 76 70 75 75 73 68 64 67 71 72 72 71 70 69 68
70 78 79 79 79 77 77 76 77 75 76 76 75 75 77 77 74 75 75 73 74 63 72 72 75 74 72 73 73 73 74 73 71 66 61 62 70 71 70 68 68 68 67
72 74 78 79 78 77 77 77 77 76 76 75 75 76 75 75 75 76 75 75 75 76 75 75 73 71 72 72 71 70 70 70 68 66 61 60 65 67 68 67 67 67 66
73 69 75 77 77 77 76 77 77 76 75 77 76 76 77 76 75 76 72 73 74 72 72 72 72 70 70 69 69 68 67 66 66 65 59 57 60 63 65 66 66 65 65
72 69 71 74 76 77 76 76 76 77 77 77 76 76 77 77 75 72 73 72 71 70 69 71 70 69 69 68 66 66 65 65 65 64 60 55 56 58 60 62 63 63 63
75 70 68 73 76 75 75 75 76 76 75 74 73 76 76 77 74 73 69 68 66 66 70 70 69 69 67 66 63 62 61 60 59 58 60 58 54 53 55 57 58 59 60
74 69 68 72 73 74 75 74 75 76 73 72 73 74 73 70 70 67 64 63 64 67 68 67 67 65 66 65 61 59 55 55 54 55 57 58 57 55 51 51 53 55 56
74 72 67 68 71 73 74 74 74 69 67 71 71 72 70 69 68 64 63 63 65 66 66 66 63 65 61 57 54 52 51 51 54 57 56 55 54 54 53 51 49 50 52
74 73 68 68 70 72 73 72 66 66 67 65 63 66 68 66 65 62 62 62 64 63 62 60 57 54 52 53 53 50 50 53 55 56 55 55 53 52 51 50 49 49 48
72 71 67 66 69 70 70 66 63 60 61 59 57 59 61 63 62 61 61 61 61 58 57 57 52 50 48 50 48 49 51 55 56 56 56 54 52 51 50 49 47 47 48
68 67 67 67 69 68 70 67 64 61 60 58 55 54 55 55 57 56 56 55 54 51 49 48 49 47 46 49 49 50 48 50 53 54 54 53 51 51 49 47 46 45 45
67 67 69 68 69 68 69 67 61 56 55 53 52 51 51 51 51 51 50 49 47 47 45 45 47 48 44 51 52 50 51 50 48 51 50 51 50 49 48 47 46 45 44
68 70 71 70 69 68 67 60 56 58 55 56 52 50 48 48 47 47 47 46 45 45 44 46 47 49 53 49 50 51 49 49 48 44 48 48 50 48 47 46 45 44 43
68 68 70 70 68 67 62 61 59 60 55 52 48 43 42 42 43 43 43 42 43 43 44 45 46 47 47 46 46 47 47 48 47 46 45 45 48 48 46 45 44 42 42
68 68 68 68 66 63 61 60 59 51 48 45 42 40 39 38 38 39 40 41 42 42 42 44 45 44 44 44 44 43 42 41 40 42 42 42 41 45 45 44 42 41 41
MSLP
1012.64 1013.69 1014.67 1015.05 1015.43 1015.71 1015.99 1016.31 1016.69 1017.00 1017.20 1017.45 1017.48 1017.59 1017.68 1017.74 1017.87 1017.87 1017.85 1017.95 1018.08 1018.17 1018.22 1018.39 1018.47 1018.54 1018.56 1018.64 1018.66 1018.65 1018.64 1018.66 1018.62 1018.52 1018.40 1018.27 1018.20 1018.17 1018.25 1018.25 1018.03 1017.86 1018.09
1012.40 1013.63 1014.62 1015.02 1015.39 1015.71 1016.03 1016.41 1016.78 1017.09 1017.32 1017.52 1017.62 1017.78 1017.80 1017.96 1018.12 1018.16 1018.22 1018.31 1018.40 1018.53 1018.63 1018.73 1018.80 1018.89 1018.92 1018.92 1018.92 1018.94 1018.95 1019.01 1018.99 1018.82 1018.54 1018.43 1018.39 1018.31 1018.38 1018.41 1018.32 1018.18 1018.15
1012.48 1013.46 1014.52 1014.99 1015.37 1015.70 1016.06 1016.40 1016.76 1017.13 1017.36 1017.59 1017.77 1017.96 1018.04 1018.19 1018.34 1018.51 1018.57 1018.66 1018.72 1018.77 1018.83 1018.91 1019.01 1019.11 1019.16 1019.19 1019.18 1019.16 1019.18 1019.18 1019.10 1018.88 1018.50 1018.05 1018.21 1018.56 1018.47 1018.54 1018.47 1018.33 1018.20
1012.53 1013.40 1014.05 1014.98 1015.33 1015.71 1016.06 1016.47 1016.79 1017.13 1017.48 1017.71 1017.94 1018.16 1018.31 1018.47 1018.59 1018.68 1018.82 1018.93 1018.90 1019.01 1019.13 1019.29 1019.38 1019.43 1019.45 1019.45 1019.43 1019.39 1019.40 1019.36 1019.19 1018.80 1018.28 1018.22 1018.04 1018.65 1018.57 1018.49 1018.42 1018.41 1018.36
1012.69 1013.35 1013.99 1014.98 1015.30 1015.60 1016.02 1016.45 1016.82 1017.12 1017.51 1017.81 1018.04 1018.29 1018.50 1018.61 1018.75 1018.97 1019.10 1019.17 1019.26 1019.36 1019.46 1019.55 1019.64 1019.68 1019.70 1019.68 1019.67 1019.64 1019.58 1019.48 1019.19 1018.78 1018.30 1018.66 1018.34 1018.73 1018.77 1018.65 1018.42 1018.41 1018.48
1012.73 1013.18 1014.69 1015.20 1015.48 1015.69 1016.06 1016.41 1016.82 1017.18 1017.56 1017.93 1018.15 1018.40 1018.61 1018.88 1019.07 1019.28 1019.43 1019.54 1019.63 1019.68 1019.72 1019.83 1019.92 1019.94 1019.92 1019.87 1019.83 1019.83 1019.75 1019.59 1019.11 1018.39 1018.44 1018.56 1018.61 1019.05 1018.75 1018.68 1018.57 1018.43 1018.34
1012.73 1013.20 1014.53 1015.36 1015.61 1015.83 1016.14 1016.47 1016.88 1017.27 1017.61 1017.93 1018.24 1018.47 1018.77 1019.13 1019.31 1019.50 1019.68 1019.82 1019.92 1019.94 1019.97 1020.06 1020.07 1020.08 1020.09 1020.08 1020.06 1019.97 1019.84 1019.60 1018.96 1018.72 1018.68 1018.64 1018.94 1019.07 1018.64 1018.54 1018.54 1018.52 1018.38
1012.81 1013.45 1014.23 1015.21 1015.59 1015.90 1016.27 1016.61 1016.96 1017.32 1017.72 1018.02 1018.33 1018.63 1018.88 1019.31 1019.55 1019.67 1019.85 1019.96 1020.07 1020.18 1020.24 1020.25 1020.29 1020.28 1020.23 1020.22 1020.19 1020.09 1019.94 1019.56 1018.59 1018.60 1018.68 1018.60 1019.26 1019.04 1018.69 1018.78 1018.78 1018.79 1018.66
1012.94 1013.63 1014.44 1014.82 1015.42 1016.02 1016.48 1016.92 1017.20 1017.51 1017.88 1018.25 1018.54 1018.73 1019.07 1019.41 1019.71 1019.87 1020.04 1020.18 1020.28 1020.38 1020.43 1020.45 1020.44 1020.42 1020.37 1020.39 1020.35 1020.21 1019.95 1019.51 1019.01 1018.80 1018.73 1019.09 1019.54 1019.04 1018.95 1019.00 1019.03 1019.08 1019.08
1013.21 1013.49 1014.51 1014.87 1015.31 1015.85 1016.72 1017.24 1017.54 1017.87 1018.26 1018.56 1018.85 1019.21 1019.51 1019.72 1019.95 1020.13 1020.23 1020.34 1020.37 1020.47 1020.58 1020.63 1020.58 1020.57 1020.55 1020.52 1020.52 1020.36 1020.01 1019.67 1019.07 1019.12 1019.22 1019.83 1019.79 1019.41 1019.45 1019.50 1019.52 1019.56 1019.51
1013.36 1013.53 1014.13 1014.90 1015.28 1015.91 1016.79 1017.50 1017.78 1018.14 1018.61 1018.92 1019.25 1019.52 1019.70 1019.40 1019.82 1020.14 1020.37 1020.48 1020.58 1020.66 1020.66 1020.69 1020.71 1020.66 1020.57 1020.51 1020.35 1020.17 1019.92 1019.63 1019.61 1019.93 1020.51 1020.13 1019.92 1019.79 1019.94 1019.95 1019.94 1020.09 1020.19
1013.63 1013.59 1013.90 1014.51 1015.50 1016.06 1016.57 1017.28 1017.50 1018.03 1018.41 1018.59 1018.80 1019.23 1018.96 1019.10 1019.29 1019.37 1020.25 1020.56 1020.61 1020.65 1020.62 1020.67 1020.62 1020.45 1020.16 1019.90 1019.93 1020.08 1019.98 1020.08 1020.45 1021.26 1021.58 1020.85 1020.39 1020.31 1020.37 1020.35 1020.46 1020.61 1020.83
1014.15 1013.55 1013.93 1014.41 1014.86 1015.50 1015.99 1016.58 1017.06 1017.75 1017.99 1018.30 1018.57 1018.81 1018.82 1019.02 1019.58 1019.66 1019.74 1020.03 1020.12 1020.46 1020.23 1020.31 1020.30 1020.50 1020.67 1020.49 1020.49 1020.55 1020.52 1020.65 1021.09 1022.07 1022.25 1021.63 1021.00 1020.78 1020.94 1021.14 1021.22 1021.18 1021.35
1013.74 1013.88 1013.90 1014.35 1014.93 1015.51 1015.98 1016.38 1016.76 1017.28 1017.78 1018.10 1018.47 1018.74 1018.91 1019.01 1019.21 1019.05 1019.14 1019.34 1019.67 1019.94 1020.08 1020.27 1020.59 1020.99 1020.90 1021.02 1021.03 1021.15 1021.21 1021.31 1021.80 1022.50 1023.08 1022.51 1022.12 1021.75 1021.80 1021.85 1021.87 1021.93 1022.10
1012.98 1014.14 1014.14 1014.43 1014.93 1015.34 1015.93 1016.21 1016.52 1016.93 1017.51 1017.77 1018.19 1018.58 1018.68 1018.71 1019.00 1019.02 1019.33 1019.57 1019.97 1020.39 1020.52 1020.50 1020.76 1021.09 1021.21 1021.36 1021.49 1021.66 1021.97 1022.16 1022.31 1022.75 1023.76 1023.58 1023.28 1023.05 1022.79 1022.54 1022.59 1022.63 1022.65
1012.94 1013.58 1014.26 1014.41 1014.85 1015.29 1015.79 1016.06 1016.46 1016.78 1017.09 1017.31 1017.80 1018.24 1018.45 1018.47 1018.82 1019.09 1019.54 1020.14 1020.49 1020.70 1020.96 1020.93 1021.09 1021.26 1021.39 1021.75 1022.09 1022.31 1022.55 1022.76 1022.90 1023.00 1023.95 1024.63 1024.45 1024.21 1024.02 1023.72 1023.55 1023.42 1023.34
1012.27 1013.58 1014.10 1014.29 1014.61 1015.24 1015.71 1016.07 1016.45 1016.73 1017.08 1017.38 1017.67 1017.95 1018.30 1018.50 1019.08 1019.45 1019.95 1020.58 1020.98 1021.13 1020.93 1021.09 1021.37 1021.47 1021.69 1022.10 1022.71 1023.08 1023.36 1023.60 1023.89 1024.01 1024.10 1024.63 1025.39 1025.54 1025.31 1025.14 1024.91 1024.62 1024.36
1011.73 1012.93 1014.02 1014.13 1014.44 1015.07 1015.53 1015.98 1016.27 1016.61 1017.28 1017.55 1017.78 1018.11 1018.60 1019.16 1019.45 1019.98 1020.55 1020.99 1021.22 1021.09 1021.16 1021.38 1021.55 1021.80 1021.94 1022.42 1023.10 1023.81 1024.58 1024.85 1024.94 1024.93 1024.89 1024.90 1025.28 1025.76 1026.30 1026.33 1026.16 1025.87 1025.41
1011.22 1012.21 1013.47 1014.19 1014.16 1014.67 1015.21 1015.70 1016.09 1017.04 1017.81 1018.06 1018.37 1018.61 1019.10 1019.31 1019.71 1020.25 1020.78 1021.18 1021.20 1021.26 1021.38 1021.53 1022.01 1022.06 1022.63 1023.29 1024.12 1024.90 1025.20 1025.23 1025.11 1025.18 1025.33 1025.56 1025.87 1026.10 1026.32 1026.79 1026.91 1026.84 1026.55
1010.88 1011.77 1013.02 1013.76 1014.08 1014.24 1015.01 1015.59 1016.58 1017.54 1018.09 1018.82 1019.24 1019.20 1019.44 1019.82 1020.14 1020.56 1021.00 1021.24 1021.32 1021.51 1021.94 1022.36 1022.81 1023.36 1023.77 1024.04 1024.64 1025.13 1025.25 1025.13 1025.15 1025.31 1025.66 1025.96 1026.41 1026.59 1026.87 1027.03 1027.07 1027.05 1027.23
1010.60 1011.15 1012.50 1013.11 1013.50 1014.05 1014.47 1015.48 1016.75 1017.57 1018.44 1019.25 1019.75 1020.00 1020.17 1020.34 1020.65 1020.87 1021.26 1021.61 1021.85 1022.32 1022.80 1023.09 1023.52 1023.95 1024.62 1024.84 1025.00 1025.44 1025.41 1025.30 1025.35 1025.57 1025.85 1026.28 1026.68 1027.18 1027.37 1027.48 1027.76 1027.69 1027.54
1010.11 1010.66 1011.77 1012.52 1013.03 1013.63 1014.23 1015.43 1016.58 1017.51 1018.56 1019.25 1020.08 1020.59 1020.95 1021.22 1021.30 1021.45 1021.79 1022.27 1022.70 1023.18 1023.52 1023.72 1023.86 1024.43 1025.02 1025.16 1024.94 1025.02 1025.09 1025.47 1025.59 1025.93 1026.28 1026.56 1026.77 1027.20 1027.66 1027.95 1028.13 1028.27 1028.04
1009.41 1010.04 1010.34 1011.40 1012.24 1013.22 1013.96 1015.17 1016.43 1017.62 1019.09 1019.66 1020.45 1021.23 1021.69 1021.83 1022.05 1022.36 1022.61 1023.09 1023.50 1023.70 1023.94 1024.19 1024.25 1024.38 1024.75 1025.11 1024.92 1024.93 1024.54 1024.32 1025.31 1026.15 1026.38 1026.82 1027.06 1027.30 1027.69 1028.14 1028.33 1028.55 1028.56
1008.44 1009.33 1009.66 1010.44 1011.64 1012.67 1013.49 1014.88 1015.80 1016.61 1017.80 1018.81 1020.09 1021.38 1022.24 1022.63 1022.86 1023.13 1023.42 1023.77 1024.23 1024.42 1024.54 1024.71 1024.60 1024.50 1024.38 1025.11 1025.47 1025.64 1025.80 1025.44 1025.11 1025.84 1026.44 1026.77 1027.12 1027.36 1027.77 1028.16 1028.40 1028.71 1028.83
1007.86 1008.50 1009.20 1009.91 1011.16 1012.25 1013.56 1014.41 1015.26 1016.32 1017.39 1018.89 1020.50 1021.56 1022.57 1023.25 1023.60 1023.84 1024.06 1024.41 1024.70 1025.08 1025.37 1025.33 1025.38 1025.32 1025.56 1025.84 1026.13 1026.34 1026.23 1026.28 1026.31 1026.25 1025.80 1026.63 1026.95 1027.37 1027.96 1028.15 1028.71 1028.88 1029.05
1007.31 1008.05 1009.21 1009.37 1010.80 1012.07 1013.27 1014.34 1014.99 1016.19 1017.63 1019.01 1020.72 1021.70 1022.94 1023.57 1024.30 1024.54 1024.63 1024.95 1025.48 1025.64 1025.76 1026.29 1026.47 1026.20 1026.36 1026.72 1027.29 1027.37 1027.44 1027.41 1027.56 1027.45 1027.14 1027.40 1027.68 1027.53 1028.02 1028.29 1028.61 1028.94 1029.01
Wind_Speed
13 17 15 16 15 14 16 15 15 13 12 12 11 12 11 10 10 11 11 11 11 11 11 11 11 11 11 11 12 11 11 11 11 10 9 11 13 12 12 11 14 11 11
17 18 14 15 16 14 17 15 15 13 13 12 12 12 10 10 10 11 11 10 10 10 10 10 10 10 10 11 11 11 11 10 9 6 4 4 12 11 11 10 10 10 9
17 18 16 14 15 13 16 16 16 13 13 12 12 11 11 10 10 10 10 10 9 9 11 10 10 10 9 9 9 9 9 8 6 4 8 5 8 11 11 10 10 10 9
16 16 16 13 15 13 16 16 15 15 13 13 12 11 10 10 10 9 10 8 8 10 10 10 10 9 8 8 8 8 8 7 5 8 2 7 6 9 9 9 8 9 10
15 15 14 13 15 15 14 16 15 16 14 13 13 12 10 10 10 9 9 7 9 10 10 10 10 10 9 8 8 7 7 6 7 9 5 7 6 10 9 9 9 9 7
15 14 14 10 12 14 14 16 16 16 15 13 13 12 10 10 9 9 8 9 9 9 10 9 9 8 7 7 7 7 7 7 12 5 5 4 8 10 10 7 9 8 7
14 13 13 8 11 14 15 15 16 16 14 13 13 12 11 10 9 9 8 8 7 7 8 7 7 6 7 7 7 6 6 7 7 6 5 4 9 12 12 7 10 12 12
14 12 12 9 10 14 16 14 16 16 14 13 13 12 11 10 9 9 8 7 7 7 6 6 6 6 6 6 6 6 5 8 6 6 6 6 12 14 13 14 14 13 14
13 12 9 11 11 9 11 12 14 14 13 11 11 11 11 9 8 8 7 6 6 6 6 6 6 6 6 7 7 6 4 7 8 5 7 7 13 9 14 15 16 16 16
13 13 10 11 12 13 12 10 10 11 10 10 9 9 9 9 8 6 6 5 5 5 5 6 6 6 6 6 6 6 7 9 9 8 7 7 12 12 16 17 18 18 18
12 13 15 11 11 13 10 7 9 10 9 9 9 8 8 7 8 8 7 4 4 4 5 6 5 4 1 5 5 4 8 6 8 9 8 10 11 17 17 17 16 18 19
14 15 13 14 12 11 9 9 10 10 9 9 9 10 7 7 6 5 6 4 3 3 6 6 3 4 5 4 3 2 5 7 8 9 7 16 16 16 15 16 17 20 20
14 13 15 13 12 13 10 8 6 6 6 6 9 9 6 6 5 5 6 5 6 7 5 5 3 6 7 6 6 5 6 7 7 7 12 18 14 16 20 20 20 20 20
19 13 15 15 12 11 8 8 8 7 6 6 7 8 6 5 6 5 3 4 3 4 3 4 4 5 6 6 7 8 8 7 6 7 13 22 22 21 21 20 20 21 19
18 13 14 14 13 12 10 8 8 8 7 8 8 8 7 6 5 4 3 4 4 3 4 3 4 4 5 6 7 8 9 8 8 7 8 22 22 22 21 21 20 19 19
17 16 13 13 13 12 10 10 8 8 9 8 8 8 8 6 4 3 4 4 3 3 2 4 4 3 4 6 8 8 8 8 8 8 9 12 24 23 21 20 19 19 17
17 15 14 14 14 12 11 9 8 8 6 6 5 8 8 5 5 5 4 3 3 3 2 3 4 3 5 6 8 7 7 10 8 9 7 7 10 21 21 21 20 19 18
18 16 14 12 15 14 11 9 7 6 6 4 6 6 5 6 6 6 3 4 3 2 3 3 3 3 4 5 6 7 7 7 8 8 6 6 7 7 13 19 19 19 19
19 19 16 15 14 15 13 10 8 5 4 4 4 5 6 6 7 6 4 4 4 3 3 3 4 3 6 6 7 6 5 4 5 6 8 9 9 8 6 11 16 18 18
18 18 15 14 14 15 11 9 7 5 6 5 4 3 7 6 6 6 5 5 4 4 5 5 6 7 5 6 7 6 3 3 3 5 7 7 8 8 8 8 6 7 14
18 18 17 17 16 11 11 10 9 7 6 5 5 6 5 5 6 6 5 6 5 5 5 6 6 6 5 4 4 2 3 4 5 4 5 6 7 7 8 8 6 5 6
18 17 19 18 16 13 10 9 7 9 6 7 6 6 7 6 6 6 6 7 7 6 6 5 3 3 3 1 0 4 5 4 4 4 4 4 6 5 6 8 8 8 6
20 20 21 20 17 15 15 10 9 8 6 5 6 6 7 8 9 9 9 7 7 5 5 4 3 3 3 2 5 3 2 1 6 4 4 3 4 4 4 4 6 7 7
19 19 18 20 18 16 15 13 16 10 10 6 8 8 8 10 9 9 9 8 7 5 6 5 4 4 2 5 4 5 6 5 2 4 4 3 3 3 3 3 4 6 7
18 18 18 19 18 15 14 13 12 10 8 9 9 11 10 9 9 10 9 9 9 6 6 7 7 8 7 6 6 3 3 4 6 3 2 3 4 3 3 3 3 4 6
17 17 17 20 17 16 14 13 13 15 14 12 11 9 7 7 6 9 10 9 8 8 8 6 8 10 8 8 6 6 6 5 5 4 2 4 3 2 2 2 3 3 4
Wind_Direction
154 142 155 153 157 159 149 145 136 136 131 134 134 119 124 109 106 100 104 98 89 86 84 76 72 69 65 60 59 63 61 52 45 39 41 58 40 46 42 30 2 41 24
151 149 157 155 161 163 155 147 142 144 139 142 133 132 128 116 109 96 94 96 91 86 86 83 78 73 70 63 62 61 57 49 43 21 335 129 64 49 48 38 30 27 17
151 149 162 159 164 163 159 150 149 146 142 144 139 137 130 124 108 104 103 98 101 102 87 81 82 75 70 65 62 59 54 44 28 329 301 48 78 31 44 35 24 21 12
154 151 161 164 165 162 157 154 154 147 144 146 144 139 133 125 116 115 101 98 91 86 81 77 74 72 70 66 62 56 48 36 348 298 31 31 25 50 11 22 27 20 2
154 161 143 160 166 164 159 161 160 148 147 149 146 142 140 134 117 109 106 98 88 86 86 82 79 76 71 65 56 46 32 2 305 293 44 39 1 39 358 350 358 355 349
159 158 133 163 178 171 166 165 161 148 147 153 152 143 148 123 118 114 106 95 91 88 83 77 71 68 65 58 49 36 18 335 306 39 29 65 41 4 348 337 334 333 327
160 152 154 181 191 183 170 166 160 146 151 155 155 147 137 132 128 121 112 105 98 92 88 81 74 64 54 47 43 31 6 329 317 22 19 25 31 351 342 345 347 355 9
156 151 148 168 195 182 166 162 153 147 150 156 153 153 152 131 135 128 122 114 104 94 84 72 58 47 41 39 39 28 7 322 294 42 15 20 19 350 36 51 46 45 47
155 144 156 160 147 134 146 147 148 147 150 143 143 134 130 133 133 123 115 112 103 92 80 62 48 44 53 50 34 17 346 306 316 35 17 33 357 22 53 59 53 50 50
161 160 147 158 158 154 149 123 125 128 126 126 119 112 115 113 115 116 132 111 103 87 70 65 66 60 70 73 37 348 308 285 36 25 30 14 348 54 59 60 58 56 54
174 177 155 165 156 147 133 127 113 110 114 119 121 121 151 161 170 169 83 103 92 79 88 80 63 32 228 124 93 325 297 43 49 38 25 357 61 66 63 56 54 54 59
198 178 176 166 155 149 147 156 156 145 164 174 169 168 189 160 154 138 126 153 143 155 134 128 151 239 307 17 63 262 45 59 61 47 21 18 47 52 58 54 60 62 57
193 182 178 180 175 163 157 172 161 164 171 169 173 182 173 168 161 186 157 173 172 192 180 185 50 35 30 24 38 39 65 63 73 60 16 11 40 55 58 60 55 56 51
183 209 182 179 176 177 165 181 170 174 174 176 176 185 169 184 185 183 178 160 132 47 49 41 58 44 46 55 55 59 52 64 73 63 32 41 48 56 55 53 52 50 45
187 182 196 185 180 176 183 188 175 177 180 180 171 184 186 191 186 192 122 80 77 79 39 31 65 55 69 62 68 71 72 73 83 92 62 48 52 50 50 50 49 49 47
191 177 196 193 185 178 186 184 177 180 184 175 175 178 201 192 186 142 128 95 84 72 68 51 52 75 77 84 70 74 74 70 70 88 91 61 56 52 48 48 47 44 44
191 185 184 193 186 180 188 179 181 180 161 186 178 175 187 193 125 106 99 116 75 79 101 111 85 89 103 91 84 74 56 52 56 56 65 100 77 57 53 49 46 44 41
193 179 184 195 187 181 186 180 180 171 178 174 172 172 141 133 132 114 94 104 111 105 90 85 99 109 107 109 87 61 65 64 71 69 67 62 60 79 60 54 48 42 40
196 180 182 193 187 183 180 175 167 126 103 107 125 131 146 122 126 114 119 111 125 110 95 91 73 91 98 87 88 75 74 72 86 85 85 80 69 56 64 67 61 44 39
196 185 184 189 194 180 168 154 113 127 129 131 117 114 143 128 123 114 117 110 109 104 93 79 88 54 49 91 97 95 105 118 102 88 91 81 73 68 61 50 33 58 41
196 184 189 185 191 176 174 152 152 155 148 122 91 84 81 102 103 109 107 105 91 82 78 89 91 89 58 76 109 104 131 97 87 90 90 93 84 70 59 56 41 25 26
194 182 188 189 184 178 165 158 165 145 142 120 110 90 88 85 89 91 91 88 82 89 72 57 58 112 88 43 241 199 167 153 106 84 82 84 82 79 67 59 47 35 26
192 192 184 187 176 177 168 157 122 102 109 125 124 103 84 81 78 80 85 87 80 81 82 69 47 100 126 91 53 339 277 69 140 139 96 76 80 81 80 73 55 37 25
196 191 188 178 175 181 159 154 162 163 160 159 135 112 92 73 69 74 77 74 69 62 64 61 35 28 56 111 95 56 45 14 317 167 156 120 102 77 70 65 44 42 24
193 186 184 177 174 178 162 171 172 160 121 121 120 114 102 83 74 75 74 71 67 63 53 53 57 61 55 67 48 35 54 66 19 3 103 128 155 115 105 67 44 34 20
187 183 188 173 175 163 173 175 169 141 140 135 135 122 111 102 84 74 75 70 61 57 63 61 56 62 68 69 67 57 50 43 31 13 355 12 330 87 26 64 53 30 17